• în România
  • Lista ţărilor
  • Pe 7 zile
  • Temperatura apei
  • Hartă satelitară
  • Meteo pe hartă
  • Widget-uri
  • user-avatar
    Intrare

    Meteo pe oră la Midlothian

    Astăzi, 16 Octombrie, Marţi

    Timp Temperatura Precipitaţii Vânt Presiune Umiditate
    00:00 +4°C° 0 mm 3 m/s 736 mmHg 94%
    01:00 +4°C° 0 mm 3 m/s 736 mmHg 93%
    02:00 +4°C° 0 mm 4 m/s 735 mmHg 93%
    03:00 +4°C° 0 mm 4 m/s 735 mmHg 93%
    04:00 +5°C° 0 mm 4 m/s 735 mmHg 94%
    05:00 +5°C° 0 mm 4 m/s 734 mmHg 95%
    06:00 +5°C° 0 mm 4 m/s 734 mmHg 95%
    07:00 +6°C° 0 mm 5 m/s 734 mmHg 93%
    08:00 +8°C° 0 mm 5 m/s 734 mmHg 91%
    09:00 +9°C° 0 mm 6 m/s 733 mmHg 88%
    10:00 +10°C° 0 mm 6 m/s 733 mmHg 85%
    11:00 +11°C° 0 mm 7 m/s 733 mmHg 81%
    12:00 +12°C° 0 mm 8 m/s 733 mmHg 77%
    13:00 +11°C° 0.1 mm 7 m/s 733 mmHg 80%
    14:00 +11°C° 0.1 mm 7 m/s 733 mmHg 82%
    15:00 +10°C° 0.1 mm 7 m/s 733 mmHg 85%
    16:00 +10°C° 0 mm 6 m/s 733 mmHg 87%
    17:00 +10°C° 0 mm 6 m/s 733 mmHg 89%
    18:00 +10°C° 0 mm 5 m/s 733 mmHg 92%
    19:00 +9°C° 0 mm 5 m/s 733 mmHg 92%
    20:00 +9°C° 0 mm 5 m/s 733 mmHg 92%
    21:00 +8°C° 0 mm 4 m/s 734 mmHg 93%
    22:00 +8°C° 0 mm 4 m/s 734 mmHg 93%
    23:00 +7°C° 0 mm 4 m/s 734 mmHg 94%

    Mâine, 17 Octombrie, Miercuri

    Timp Temperatura Precipitaţii Vânt Presiune Umiditate
    00:00 +7°C° 0 mm 4 m/s 735 mmHg 94%
    01:00 +7°C° 0 mm 4 m/s 735 mmHg 95%
    02:00 +7°C° 0 mm 4 m/s 735 mmHg 95%
    03:00 +7°C° 0 mm 4 m/s 735 mmHg 96%
    04:00 +6°C° 0 mm 4 m/s 736 mmHg 96%
    05:00 +6°C° 0 mm 4 m/s 736 mmHg 96%
    06:00 +7°C° 0 mm 3 m/s 737 mmHg 96%
    07:00 +8°C° 0 mm 3 m/s 737 mmHg 93%
    08:00 +8°C° 0 mm 3 m/s 738 mmHg 90%
    09:00 +9°C° 0 mm 3 m/s 739 mmHg 87%
    10:00 +9°C° 0 mm 3 m/s 739 mmHg 84%
    11:00 +10°C° 0 mm 3 m/s 740 mmHg 81%
    12:00 +10°C° 0 mm 3 m/s 740 mmHg 78%
    13:00 +10°C° 0 mm 3 m/s 740 mmHg 76%
    14:00 +10°C° 0 mm 4 m/s 741 mmHg 74%
    15:00 +10°C° 0 mm 4 m/s 741 mmHg 73%
    16:00 +7°C° 0 mm 4 m/s 742 mmHg 77%
    17:00 +6°C° 0 mm 4 m/s 742 mmHg 81%
    18:00 +5°C° 0 mm 3 m/s 743 mmHg 85%
    19:00 +4°C° 0 mm 3 m/s 743 mmHg 86%
    20:00 +4°C° 0 mm 3 m/s 744 mmHg 87%
    21:00 +3°C° 0 mm 3 m/s 744 mmHg 88%
    22:00 +3°C° 0 mm 3 m/s 744 mmHg 89%
    23:00 +3°C° 0 mm 3 m/s 745 mmHg 89%

    Poimâine, 18 Octombrie, Joi

    Timp Temperatura Precipitaţii Vânt Presiune Umiditate
    00:00 +2°C° 0 mm 3 m/s 745 mmHg 90%
    01:00 +2°C° 0 mm 3 m/s 745 mmHg 91%
    02:00 +2°C° 0 mm 3 m/s 745 mmHg 91%
    03:00 +2°C° 0 mm 3 m/s 745 mmHg 91%
    04:00 +3°C° 0 mm 2 m/s 746 mmHg 91%
    05:00 +3°C° 0 mm 2 m/s 746 mmHg 92%
    06:00 +2°C° 0 mm 2 m/s 746 mmHg 92%
    07:00 +4°C° 0 mm 2 m/s 746 mmHg 89%
    08:00 +5°C° 0 mm 2 m/s 746 mmHg 86%
    09:00 +6°C° 0 mm 2 m/s 747 mmHg 83%
    10:00 +8°C° 0 mm 1 m/s 747 mmHg 78%
    11:00 +9°C° 0 mm 1 m/s 747 mmHg 72%
    12:00 +10°C° 0 mm 1 m/s 747 mmHg 67%
    13:00 +10°C° 0 mm 1 m/s 747 mmHg 68%
    14:00 +9°C° 0 mm 2 m/s 746 mmHg 69%
    15:00 +9°C° 0 mm 2 m/s 746 mmHg 71%
    16:00 +7°C° 0 mm 2 m/s 746 mmHg 77%
    17:00 +6°C° 0 mm 2 m/s 746 mmHg 82%
    18:00 +5°C° 0 mm 2 m/s 745 mmHg 88%
    19:00 +4°C° 0 mm 2 m/s 745 mmHg 90%
    20:00 +3°C° 0 mm 3 m/s 745 mmHg 91%
    21:00 +2°C° 0 mm 3 m/s 745 mmHg 92%
    22:00 +3°C° 0 mm 3 m/s 745 mmHg 92%
    23:00 +3°C° 0 mm 3 m/s 744 mmHg 91%

    19 Octombrie, Vineri

    Timp Temperatura Precipitaţii Vânt Presiune Umiditate
    00:00 +3°C° 0 mm 4 m/s 744 mmHg 91%
    01:00 +4°C° 0 mm 4 m/s 744 mmHg 90%
    02:00 +4°C° 0 mm 4 m/s 743 mmHg 89%
    03:00 +5°C° 0 mm 4 m/s 743 mmHg 88%
    04:00 +5°C° 0 mm 5 m/s 742 mmHg 89%
    05:00 +5°C° 0 mm 5 m/s 742 mmHg 90%
    06:00 +5°C° 0 mm 5 m/s 742 mmHg 92%
    07:00 +5°C° 0 mm 6 m/s 742 mmHg 88%
    08:00 +7°C° 0 mm 6 m/s 741 mmHg 85%
    09:00 +6°C° 0 mm 7 m/s 741 mmHg 82%
    10:00 +8°C° 0 mm 7 m/s 741 mmHg 82%
    11:00 +8°C° 0 mm 7 m/s 742 mmHg 83%
    12:00 +9°C° 0 mm 6 m/s 742 mmHg 83%
    13:00 +9°C° 0 mm 6 m/s 742 mmHg 85%
    14:00 +9°C° 0 mm 6 m/s 742 mmHg 86%
    15:00 +9°C° 0 mm 5 m/s 742 mmHg 88%
    16:00 +8°C° 0 mm 5 m/s 743 mmHg 89%
    17:00 +8°C° 0 mm 4 m/s 743 mmHg 91%
    18:00 +8°C° 0 mm 3 m/s 743 mmHg 93%
    19:00 +8°C° 0 mm 3 m/s 744 mmHg 93%
    20:00 +7°C° 0 mm 3 m/s 744 mmHg 94%
    21:00 +7°C° 0 mm 3 m/s 744 mmHg 94%
    22:00 +6°C° 0 mm 2 m/s 745 mmHg 94%
    23:00 +6°C° 0 mm 2 m/s 745 mmHg 94%

    20 Octombrie, Sâmbătă

    Timp Temperatura Precipitaţii Vânt Presiune Umiditate
    00:00 +5°C° 0 mm 2 m/s 745 mmHg 94%
    01:00 +5°C° 0 mm 2 m/s 745 mmHg 94%
    02:00 +5°C° 0 mm 2 m/s 745 mmHg 94%
    03:00 +5°C° 0 mm 2 m/s 745 mmHg 94%
    04:00 +6°C° 0 mm 2 m/s 745 mmHg 95%
    05:00 +7°C° 0 mm 2 m/s 745 mmHg 95%
    06:00 +7°C° 0 mm 2 m/s 746 mmHg 96%
    07:00 +8°C° 0 mm 2 m/s 746 mmHg 95%
    08:00 +9°C° 0 mm 3 m/s 746 mmHg 94%
    09:00 +10°C° 0 mm 3 m/s 746 mmHg 93%
    10:00 +10°C° 0 mm 4 m/s 746 mmHg 92%
    11:00 +11°C° 0 mm 4 m/s 746 mmHg 91%
    12:00 +10°C° 0 mm 5 m/s 746 mmHg 90%
    13:00 +10°C° 0.1 mm 5 m/s 745 mmHg 91%
    14:00 +10°C° 0.1 mm 6 m/s 745 mmHg 91%
    15:00 +11°C° 0.1 mm 6 m/s 745 mmHg 92%
    16:00 +11°C° 0 mm 6 m/s 745 mmHg 92%
    17:00 +11°C° 0 mm 6 m/s 745 mmHg 93%
    18:00 +11°C° 0 mm 6 m/s 744 mmHg 94%
    19:00 +11°C° 0 mm 6 m/s 744 mmHg 94%
    20:00 +11°C° 0 mm 6 m/s 744 mmHg 95%
    21:00 +11°C° 0 mm 6 m/s 744 mmHg 95%
    22:00 +11°C° 0 mm 6 m/s 744 mmHg 95%
    23:00 +13°C° 0 mm 6 m/s 744 mmHg 94%

    21 Octombrie, Duminică

    Timp Temperatura Precipitaţii Vânt Presiune Umiditate
    00:00 +13°C° 0 mm 6 m/s 744 mmHg 94%
    01:00 +13°C° 0 mm 6 m/s 743 mmHg 93%
    02:00 +13°C° 0 mm 6 m/s 743 mmHg 93%
    03:00 +13°C° 0 mm 6 m/s 742 mmHg 92%
    04:00 +13°C° 0 mm 6 m/s 742 mmHg 92%
    05:00 +12°C° 0 mm 7 m/s 742 mmHg 92%
    06:00 +12°C° 0 mm 7 m/s 742 mmHg 91%
    07:00 +12°C° 0.1 mm 7 m/s 742 mmHg 90%
    08:00 +12°C° 0.1 mm 7 m/s 742 mmHg 89%
    09:00 +12°C° 0.1 mm 7 m/s 742 mmHg 89%
    10:00 +11°C° 0.1 mm 7 m/s 742 mmHg 86%
    11:00 +10°C° 0.1 mm 7 m/s 743 mmHg 83%
    12:00 +9°C° 0.1 mm 7 m/s 743 mmHg 80%
    13:00 +9°C° 0 mm 7 m/s 743 mmHg 76%
    14:00 +9°C° 0 mm 7 m/s 744 mmHg 73%
    15:00 +8°C° 0 mm 7 m/s 744 mmHg 69%
    16:00 +6°C° 0 mm 7 m/s 745 mmHg 71%
    17:00 +5°C° 0 mm 7 m/s 745 mmHg 73%
    18:00 +4°C° 0 mm 6 m/s 746 mmHg 74%
    19:00 +3°C° 0 mm 7 m/s 746 mmHg 74%
    20:00 +3°C° 0 mm 7 m/s 746 mmHg 74%
    21:00 +3°C° 0 mm 7 m/s 746 mmHg 75%
    22:00 +3°C° 0 mm 7 m/s 746 mmHg 75%
    23:00 +3°C° 0 mm 7 m/s 746 mmHg 75%
    Arată mai mult